Ouagadougou International Airport

Airport
ICAO code: 
DFFD
IATA Code: 
OUA
Summary
ICAO Region: 
AFI
Territory: 
Location: 
Ouagadougou,
Serving: 
Ouagadougou
Elevation: 
1037 ft
Coordinates: 
Aerial View: 
12° 21' 13" N, 1° 30' 42.998" W
Metar
Observation
DFFD 060000Z VRB03KT 8000 NSC 23/05 Q1013 NOSIG
Station
Ouagadougou
Date/Time
2021-12-06 00:00:00
Wind speed
03 kts
Lowest cloud amount
nil significant cloud
Temperature
23°C
Dew point
5°C
Humidity
31%
QNH
1013 hPa
Weather condition
n/a

Description

Ouagadougou International Airport is an airport located in the centre of the city of Ouagadougou in Burkina Faso.

Runways

Designator Length Width Surface Rops
04R/22L 1911 30 LAT Yes/Yes
04L/22R 3028 45 ASP Yes/Yes
Airport map: 
Aerial View: 

SKYbrary Partners:

Safety knowledge contributed by: